GFSSW_500_rhum_096.txt.gz
RH
12 11 9 10 11 12 13 15 14 9 5 4 3 3 3 2 4 7 19 29 52 68 60 54 48 40 33 28 45 52 97 96 86 97 85 63 51 20 11 15 19 27 28 29 33
12 11 10 9 9 12 13 16 19 16 10 5 5 3 4 3 3 5 39 35 64 69 60 51 48 38 32 29 49 61 82 92 95 78 70 70 57 38 11 16 19 25 36 27 27
12 12 11 10 9 12 15 15 17 21 16 9 6 6 3 4 3 6 32 43 68 67 58 49 50 31 30 44 60 71 81 96 97 92 93 95 85 49 16 15 17 24 46 38 29
13 15 14 12 10 8 13 18 19 22 23 15 9 6 6 3 5 9 20 46 64 65 58 60 59 33 56 59 66 65 64 94 97 97 97 99 84 69 35 14 17 20 30 52 44
12 14 16 16 13 11 12 14 19 21 25 25 15 8 7 5 4 9 16 42 62 63 64 67 63 60 65 70 74 85 82 88 98 96 97 98 96 96 90 39 13 19 25 26 24
16 13 15 18 17 14 14 18 18 21 26 28 25 14 7 7 5 4 16 31 60 59 56 64 64 70 61 72 68 73 88 90 94 92 99 99 90 98 95 59 15 15 20 24 27
14 16 16 18 20 19 18 18 19 21 24 31 31 24 12 7 6 5 6 23 55 57 47 51 61 68 63 54 66 63 75 93 93 92 92 98 98 97 95 73 20 15 17 21 26
16 17 19 21 23 23 21 20 22 21 22 26 33 29 20 10 9 5 6 13 33 59 51 49 53 64 53 64 62 64 93 95 96 96 84 96 98 97 97 97 90 15 14 16 20
18 20 23 26 32 31 25 24 23 23 22 23 28 32 24 15 8 9 5 6 16 39 57 51 52 51 55 52 60 70 98 94 94 84 93 96 94 95 98 97 98 32 16 13 16
23 27 33 36 42 39 32 28 26 23 21 19 21 27 25 18 11 7 8 5 5 16 43 56 53 43 51 56 55 56 70 78 91 93 86 81 78 83 92 96 97 88 24 16 12
28 32 38 50 51 45 41 33 19 20 17 16 12 15 19 20 12 8 10 7 5 5 10 40 53 50 33 52 56 57 59 65 96 93 96 84 100 89 85 61 88 82 28 22 12
31 41 56 60 53 50 29 12 6 10 11 12 12 11 6 13 8 8 7 11 6 6 5 7 33 42 37 32 48 58 60 74 94 98 94 97 99 94 90 77 84 97 53 22 19
36 55 70 63 57 46 15 5 4 4 8 9 8 7 5 7 7 6 7 11 15 6 7 6 8 20 29 28 32 49 55 69 75 83 94 95 98 98 92 92 94 98 89 61 33
46 71 69 61 55 28 8 6 5 6 7 8 6 4 4 4 5 6 7 13 21 14 6 8 10 8 18 17 20 39 65 67 94 76 79 79 81 92 95 95 90 97 92 95 77
64 68 57 54 25 15 12 11 7 5 10 14 8 8 7 4 5 5 7 10 22 24 11 7 10 11 8 9 14 30 51 100 90 53 55 65 68 76 91 93 91 97 94 97 98
48 43 42 15 6 5 9 8 4 6 6 16 14 12 8 6 5 5 6 9 19 28 21 11 10 12 11 9 11 23 47 52 92 79 38 64 61 60 64 91 84 90 97 94 96
38 40 13 5 4 3 3 2 2 3 10 16 15 21 20 10 7 6 6 6 11 18 24 21 11 8 11 11 9 15 24 59 84 64 78 48 48 64 74 68 58 80 96 94 87
47 24 7 4 3 3 3 3 3 4 5 12 34 33 34 25 13 8 6 6 8 12 27 30 19 10 8 12 10 11 14 16 46 78 92 57 38 81 85 67 69 79 87 92 69
43 14 6 3 3 3 3 3 4 6 9 15 16 33 64 58 46 26 12 9 9 10 16 28 26 17 11 12 17 11 12 42 65 78 61 63 37 81 88 73 72 78 90 93 84
34 14 4 4 4 4 8 8 6 16 19 33 36 31 30 66 57 47 38 17 13 12 14 27 33 26 17 12 17 17 14 23 35 43 52 79 55 88 91 74 80 68 56 62 78
31 4 5 9 5 6 23 41 49 31 57 74 63 60 74 57 66 58 51 39 27 18 18 20 30 36 25 17 18 20 21 15 18 33 26 69 52 68 88 84 68 54 56 55 60
5 4 7 18 7 23 50 42 34 59 74 75 71 67 52 57 52 57 62 61 50 37 25 19 30 48 32 24 20 17 23 28 19 22 13 17 23 40 65 73 63 46 66 69 77
4 4 4 5 7 13 40 65 55 58 31 31 54 49 38 40 41 53 51 63 49 53 57 43 18 40 49 33 26 23 20 21 20 26 19 17 12 32 25 58 64 60 52 36 48
4 4 4 4 4 5 6 15 40 30 30 48 72 69 54 46 45 41 28 41 55 43 68 73 47 29 66 52 36 30 22 24 26 33 26 11 11 32 42 43 60 56 50 63 57
4 3 4 4 4 3 4 4 7 23 16 23 40 62 63 62 56 48 34 29 52 45 58 70 75 44 44 78 55 49 42 30 34 48 37 28 19 23 50 84 64 43 51 71 78
4 4 4 4 4 5 4 4 5 13 16 11 13 48 56 68 79 60 67 50 55 64 58 70 76 56 42 88 79 66 66 52 45 32 37 32 31 31 30 53 76 59 57 55 64
5 5 5 5 6 7 7 5 4 8 15 14 11 11 29 73 85 85 78 90 98 84 73 73 68 95 76 48 99 92 81 75 62 32 28 26 33 44 37 27 56 87 73 53 30

GFSSW_500_rhum_102.txt.gz
RH
13 11 9 7 6 7 9 8 8 10 11 10 6 3 2 3 4 3 2 4 6 16 36 58 53 44 37 35 36 58 94 94 81 54 18 13 18 25 24 22 23 29 27 28 28
11 11 9 8 9 7 6 7 8 8 11 13 11 5 4 3 3 4 4 4 6 24 34 56 53 44 37 36 36 58 71 95 82 70 47 14 16 21 24 25 26 25 28 25 26
14 14 12 9 7 7 8 7 7 7 9 13 15 10 5 4 3 3 3 5 6 30 50 62 55 47 42 36 41 55 72 74 95 92 31 16 15 18 22 26 28 26 27 28 31
11 10 10 12 11 9 8 8 9 8 8 9 15 17 9 6 4 4 4 4 9 41 65 64 57 48 40 34 41 56 61 97 99 94 31 14 14 17 19 23 28 23 32 34 29
11 10 10 10 10 10 11 10 10 10 9 10 11 19 17 9 6 5 5 5 13 51 70 65 57 48 38 41 48 58 63 96 73 89 49 27 13 17 18 23 27 20 32 32 31
8 8 7 8 9 10 12 12 12 14 12 11 12 16 24 16 9 5 6 7 9 48 70 67 56 45 43 57 60 61 69 91 98 92 64 54 24 14 18 22 30 23 31 25 21
7 7 7 8 8 9 12 13 16 17 17 16 15 19 24 23 14 8 5 10 13 43 65 68 55 49 54 62 71 92 88 93 96 98 93 76 66 15 16 18 24 32 16 24 22
7 7 7 7 8 11 17 21 24 24 22 20 20 21 26 28 20 12 6 5 15 41 59 65 58 56 64 76 83 88 80 93 96 98 98 96 76 69 27 16 19 26 16 12 16
7 7 7 7 10 19 26 36 42 39 33 26 25 25 30 29 27 18 9 6 11 34 59 51 61 58 64 72 83 97 96 94 88 96 97 97 92 96 83 14 16 20 21 17 18
7 7 8 10 14 26 34 50 58 53 35 26 23 21 24 26 27 20 12 8 6 26 54 56 46 61 69 76 91 83 89 95 90 98 97 99 96 97 85 42 14 16 17 25 19
8 7 8 12 18 32 48 62 59 55 48 21 12 13 12 21 24 21 15 10 6 9 37 58 53 43 61 78 69 74 80 97 97 96 97 95 96 97 97 81 59 14 15 18 19
6 6 11 24 44 63 66 63 51 28 18 14 10 8 8 13 17 15 12 11 9 6 16 52 59 45 42 64 75 74 84 97 96 94 91 97 97 96 96 97 97 41 13 11 16
4 8 28 45 56 60 59 54 29 8 7 5 5 7 8 7 13 11 10 11 13 8 8 32 45 55 44 34 58 73 89 91 96 93 90 94 97 97 95 98 99 89 60 23 10
5 22 42 39 41 42 44 35 14 28 23 7 5 6 7 6 6 11 10 12 16 13 7 9 28 41 46 44 29 55 74 80 75 86 97 94 96 97 98 97 96 99 89 52 15
15 40 43 38 30 16 19 30 38 30 17 39 15 10 8 6 7 6 9 11 17 18 12 9 8 22 34 36 34 45 46 66 80 72 81 93 94 87 93 91 90 94 90 66 19
32 46 45 30 16 10 5 6 15 27 36 41 25 17 10 8 6 7 7 9 12 16 20 11 9 10 16 25 30 33 51 40 50 59 66 73 82 80 83 80 56 60 97 91 93
47 51 44 28 8 3 3 3 5 9 13 17 43 28 18 10 9 6 8 7 14 19 24 16 12 10 10 12 21 47 55 78 63 47 86 56 70 71 56 50 42 55 70 94 94
48 46 29 3 2 2 3 3 3 4 4 12 20 24 24 21 13 11 7 8 8 16 52 25 18 12 9 10 12 14 23 98 95 86 100 82 83 64 49 41 36 72 78 52 90
44 24 3 2 3 2 3 5 4 4 5 7 24 37 36 38 30 18 15 20 11 13 46 36 36 18 11 9 9 10 14 48 96 84 100 97 67 59 43 34 45 77 71 81 84
37 3 2 3 3 2 5 9 7 6 6 12 25 40 81 52 54 42 27 19 13 11 15 42 43 23 18 12 9 12 15 33 48 96 100 100 66 98 58 60 91 84 69 76 99
16 2 2 3 2 3 12 23 28 20 34 24 19 29 40 63 67 61 81 36 18 13 13 48 39 57 24 17 14 12 10 13 66 74 87 94 84 56 52 47 93 89 83 94 92
7 3 3 4 3 3 11 24 34 39 45 55 55 58 49 38 41 40 50 56 51 28 19 20 69 93 53 28 18 12 11 11 16 33 50 92 88 60 59 55 84 96 93 94 90
6 2 4 6 3 2 5 16 33 41 37 34 31 38 53 58 51 50 49 51 53 58 44 24 38 100 100 66 30 23 15 10 41 76 79 52 56 45 69 100 98 95 96 92 91
6 3 4 6 6 4 3 9 16 21 22 20 29 34 39 38 36 35 37 46 58 60 56 49 96 100 98 100 97 49 26 17 11 19 44 71 59 35 55 96 94 84 94 85 83
5 3 4 4 5 7 5 4 11 19 21 16 22 35 46 48 50 44 40 37 43 53 60 61 99 87 85 92 93 99 92 27 19 14 67 82 51 34 18 74 77 66 94 97 86
6 4 4 4 5 8 11 8 4 4 18 20 16 13 18 31 46 50 46 51 41 44 45 63 84 47 66 48 77 81 54 34 27 20 14 28 79 52 10 17 53 58 52 58 77
7 5 5 5 6 10 15 13 13 7 4 10 18 19 12 17 49 60 54 50 44 33 27 36 88 35 94 92 63 46 72 55 36 26 20 22 47 12 12 12 16 18 36 46 44

GFSSW_500_rhum_105.txt.gz
RH
11 9 10 8 6 5 5 6 7 7 7 9 10 5 3 2 3 4 2 2 3 5 12 41 47 42 36 58 39 72 98 84 59 52 38 19 25 22 23 26 28 30 30 21 22
11 10 10 9 9 8 6 5 6 6 7 7 9 10 5 3 2 3 4 3 2 4 8 28 49 45 38 39 40 70 97 96 78 60 17 23 21 26 22 22 29 26 28 22 23
9 9 9 8 9 9 8 7 6 5 6 7 8 10 10 5 3 3 3 4 4 4 9 32 58 48 44 39 43 66 95 97 73 42 12 15 19 19 22 22 26 30 29 22 22
8 6 6 6 6 6 7 8 8 7 7 6 7 9 11 9 5 4 3 4 4 5 16 47 56 51 46 38 43 68 76 85 76 75 40 12 17 20 21 19 17 26 28 23 21
6 6 6 7 6 6 6 6 6 8 8 8 7 8 10 13 8 6 4 4 4 7 34 49 55 50 47 48 47 66 70 91 93 96 51 12 14 17 23 28 15 25 30 23 20
7 6 6 6 6 6 6 6 7 8 9 10 10 10 10 12 12 7 5 4 5 14 37 53 55 50 49 54 60 61 75 88 100 95 47 12 14 16 20 31 20 27 37 20 18
6 7 6 6 5 6 6 6 8 10 13 13 13 13 17 11 13 11 6 6 8 14 46 61 57 53 51 64 53 57 67 98 96 96 59 26 13 14 18 27 24 28 35 17 16
8 7 6 6 5 5 5 6 10 14 23 22 20 20 18 24 18 15 9 5 9 18 42 63 59 55 52 60 67 81 87 97 96 98 90 62 71 14 17 23 27 21 31 16 17
8 7 6 5 5 5 6 9 17 32 43 38 26 28 29 28 26 19 13 7 9 18 46 60 64 61 56 73 78 98 97 95 97 97 93 73 82 36 16 21 25 23 17 20 23
7 5 5 4 4 6 11 16 25 33 49 53 37 25 25 26 27 21 17 9 6 14 44 52 62 65 64 81 92 96 98 98 94 96 98 94 96 78 20 17 21 20 19 15 15
6 5 4 4 7 17 31 38 43 53 59 55 32 28 20 22 23 21 18 12 7 11 34 53 51 60 65 83 98 86 97 97 97 97 97 97 97 82 93 32 17 21 22 18 15
5 4 4 9 23 37 48 60 61 52 44 36 19 12 16 16 20 18 14 14 9 8 28 50 52 41 61 76 81 91 86 89 96 97 98 94 97 98 96 42 18 18 23 22 17
4 4 8 28 37 37 44 54 51 31 19 12 6 5 6 11 13 16 12 14 12 8 16 43 53 42 40 67 82 99 95 96 90 96 97 97 97 97 97 77 46 16 15 20 27
4 6 26 40 38 34 36 41 35 12 18 8 6 5 5 6 8 13 12 13 18 10 9 26 50 50 48 35 52 99 79 93 96 96 95 96 94 97 97 97 97 77 18 12 12
7 20 36 44 36 20 17 23 32 36 96 55 21 24 7 6 12 7 11 11 19 16 9 13 26 38 55 40 30 99 95 68 92 95 88 88 93 94 97 96 97 87 61 73 34
17 31 39 41 25 13 6 5 8 20 98 43 37 34 11 8 8 8 8 10 14 21 14 74 17 15 33 37 44 33 34 46 68 94 74 78 88 94 86 93 90 90 96 98 73
29 33 34 12 2 2 2 3 12 97 71 29 49 29 51 57 21 7 8 9 12 17 21 17 13 10 14 34 37 34 31 62 61 60 96 75 90 66 82 74 73 58 48 90 78
32 26 5 2 2 2 3 3 100 50 86 11 19 46 98 43 90 41 11 9 13 40 76 43 38 13 10 69 55 28 35 82 96 87 98 63 65 62 66 57 56 42 51 70 68
33 7 2 2 2 2 3 98 98 100 9 71 30 98 100 53 84 77 96 89 89 30 96 79 81 72 15 11 64 53 58 75 90 92 90 93 91 60 72 49 46 33 37 75 79
25 4 2 2 2 2 13 48 8 6 4 19 98 89 98 100 64 44 97 96 100 71 86 96 93 78 48 12 11 60 97 94 75 98 94 97 74 97 72 56 42 36 45 67 67
15 3 3 3 2 6 93 26 21 16 17 80 92 89 97 100 95 98 97 83 92 96 36 99 88 99 74 22 33 12 27 64 88 83 82 91 79 94 52 57 79 71 68 62 61
19 4 4 4 2 60 60 15 25 37 39 42 46 86 99 88 99 97 96 94 85 29 46 33 100 99 100 84 23 77 50 56 67 83 75 73 92 94 76 63 50 90 77 77 66
28 3 5 5 85 26 6 16 24 31 29 29 33 41 49 100 72 72 88 40 50 33 72 99 66 99 97 96 62 56 78 79 69 71 68 67 77 91 98 54 57 45 93 78 87
36 12 5 6 6 11 8 9 14 17 18 19 23 26 32 59 68 79 64 44 47 43 36 60 95 93 96 97 91 96 30 82 86 76 68 67 78 84 77 74 73 62 69 90 76
41 8 3 31 5 7 6 4 7 9 18 16 21 32 39 85 100 89 45 86 37 37 44 38 90 94 97 96 82 97 97 83 36 64 88 77 84 93 86 60 89 100 89 97 90
49 13 4 4 5 8 10 9 5 4 7 19 18 21 16 21 57 100 57 89 100 72 38 79 95 79 81 98 91 99 99 90 99 92 90 92 89 99 91 42 67 95 86 80 94
50 19 5 4 5 8 20 12 13 11 7 5 7 16 21 14 18 34 50 50 99 90 72 99 95 100 97 98 99 97 99 100 100 97 96 90 88 95 88 47 40 61 88 81 75

GFSSW_500_rhum_111.txt.gz
RH
8 7 6 6 6 6 5 5 5 4 4 4 4 6 6 5 3 3 3 3 3 2 3 4 20 38 38 42 47 67 98 94 96 72 23 27 92 26 40 38 25 23 22 24 29
8 7 6 6 6 5 5 4 5 4 4 4 4 4 5 7 5 2 3 3 3 3 3 3 11 36 41 36 45 70 97 97 96 98 28 35 80 33 40 29 24 23 22 24 30
11 8 6 6 6 6 5 4 4 4 5 4 4 4 4 5 6 4 3 3 3 2 2 3 6 26 44 44 41 62 92 98 98 68 62 25 25 27 43 30 41 21 21 23 11
12 11 10 9 8 6 5 5 4 4 3 4 5 4 4 4 7 6 4 3 3 3 3 3 8 24 38 49 40 62 73 80 79 73 34 26 45 28 52 21 25 21 21 20 11
12 10 11 9 6 5 4 3 3 3 4 4 4 5 5 4 6 7 5 4 3 4 4 4 7 25 39 46 42 53 95 90 97 78 92 76 27 96 25 22 21 22 18 19 11
11 12 11 9 6 4 3 3 3 3 3 4 5 6 6 5 7 10 8 4 3 3 4 5 9 21 41 41 44 54 85 88 92 97 79 54 92 25 29 18 18 20 21 17 12
13 12 10 9 5 4 3 3 3 3 3 4 5 8 10 6 8 13 11 7 4 3 5 11 9 16 34 45 48 68 65 80 88 88 85 88 37 41 24 22 16 20 22 17 16
12 10 10 7 4 3 3 3 3 3 3 5 8 15 23 17 14 15 14 10 6 4 5 8 13 28 35 56 68 96 98 80 88 98 96 97 69 14 19 27 20 19 27 16 18
9 8 6 4 3 3 3 3 3 5 5 6 7 9 24 32 25 22 17 12 7 7 10 16 25 51 52 54 66 74 96 85 87 92 92 97 98 18 14 22 25 16 27 15 16
6 5 4 3 3 3 3 6 12 17 21 23 23 22 27 32 32 30 26 15 9 10 16 22 30 62 62 53 55 96 67 99 97 95 92 97 61 32 14 17 22 20 26 18 15
5 4 3 3 3 5 11 17 21 25 30 38 41 41 40 37 35 28 30 21 10 10 23 37 53 71 78 67 61 84 64 80 94 97 99 97 86 92 30 15 18 18 20 25 16
4 4 4 4 6 12 17 19 26 27 32 44 50 52 55 44 29 22 30 27 16 10 31 38 52 66 88 78 82 88 84 75 83 97 98 98 97 98 89 25 13 11 16 19 16
4 4 4 7 11 16 16 20 18 18 39 42 44 27 24 23 19 16 23 26 18 10 24 44 50 32 68 76 94 98 87 90 81 95 96 98 97 99 92 97 29 12 13 12 13
4 5 7 12 15 14 10 6 6 8 49 52 31 19 10 8 7 10 15 19 17 14 13 41 50 39 32 86 92 96 99 96 98 81 93 96 98 97 99 93 88 22 15 13 9
5 8 13 13 12 8 4 2 2 20 78 59 39 36 35 8 41 9 9 15 16 17 12 22 48 51 60 69 71 87 94 91 89 89 91 96 96 96 98 81 89 55 11 15 15
7 12 14 13 10 4 2 2 16 50 74 75 59 39 28 34 49 25 10 11 17 17 15 12 37 64 65 77 76 81 96 92 92 96 88 87 90 96 91 90 92 86 35 13 14
9 15 14 13 7 2 2 2 86 79 88 92 75 60 46 93 93 50 22 9 17 18 17 12 19 62 68 80 62 97 93 96 95 93 92 95 85 85 79 79 83 96 92 32 31
12 17 14 11 5 2 2 29 50 92 91 70 51 98 98 79 92 80 15 9 18 26 27 44 18 17 37 73 67 74 95 97 87 96 90 82 96 99 82 74 74 92 96 68 31
13 20 14 11 5 2 8 42 84 61 92 94 48 94 90 84 80 69 89 58 18 44 94 90 80 58 28 21 68 63 66 66 88 78 85 77 78 96 88 77 68 95 97 72 65
15 21 11 11 6 6 7 12 8 19 21 75 74 100 84 85 97 93 96 84 96 85 68 94 76 58 54 44 68 71 76 60 70 83 83 96 88 90 94 75 74 64 74 54 65
14 23 15 13 7 24 22 10 14 13 14 62 83 92 91 89 97 85 87 93 64 76 78 88 83 79 86 61 51 45 26 51 61 70 79 78 77 91 86 96 81 78 48 56 60
14 25 14 8 26 22 11 31 14 15 20 34 90 97 86 96 99 98 84 71 63 76 65 82 84 84 87 97 74 61 32 65 58 63 95 100 86 84 90 82 93 98 84 69 74
20 28 21 9 57 65 67 23 9 9 13 15 12 20 43 64 75 58 86 86 85 99 92 54 99 97 94 91 98 88 61 40 51 65 82 91 65 77 63 61 77 93 95 94 96
18 28 27 7 37 34 32 38 16 11 6 10 10 12 15 20 32 53 49 64 48 64 71 68 91 88 96 93 96 78 67 79 68 40 49 75 72 68 61 50 54 73 52 41 53
19 26 36 82 28 7 9 15 58 19 6 5 9 9 10 13 43 48 72 67 30 58 67 60 60 92 93 78 96 71 74 83 81 40 40 74 72 40 84 52 40 54 29 23 39
14 29 42 33 36 11 8 6 8 7 7 6 5 5 10 16 11 27 65 39 20 22 28 16 44 64 89 75 72 98 81 62 73 90 52 87 78 43 46 84 84 50 63 30 23
17 43 55 37 11 6 47 16 15 8 7 9 8 7 6 6 7 14 18 45 61 39 53 58 25 45 46 66 72 86 95 89 75 98 70 90 61 59 25 38 86 73 97 96 73

GFSSW_500_rhum_114.txt.gz
RH
9 7 6 6 6 5 5 4 4 4 5 4 3 4 5 6 4 2 3 3 3 2 3 7 23 37 51 44 47 76 98 91 94 23 22 21 67 34 41 34 25 22 27 28 22
12 11 10 9 7 7 6 5 4 4 4 4 4 4 4 5 6 4 3 3 3 3 3 4 17 28 39 39 55 61 97 98 90 34 18 44 92 38 54 32 26 22 28 27 16
14 12 10 10 10 8 6 5 5 4 4 4 3 3 4 4 5 6 4 3 3 3 3 3 63 29 31 32 49 68 97 96 96 40 77 29 53 29 46 96 26 25 22 21 12
12 10 8 12 10 8 5 4 4 4 3 3 4 4 4 4 6 6 5 3 3 4 3 4 11 22 39 28 33 52 88 97 93 91 73 30 17 20 65 30 26 27 23 16 10
8 9 13 12 10 9 5 4 4 4 3 3 3 4 4 4 5 7 7 5 3 4 4 4 9 15 40 41 42 50 82 94 85 97 73 74 22 30 60 35 22 25 22 17 9
15 13 12 11 10 7 4 4 4 3 3 3 3 4 4 4 6 9 9 7 5 3 4 7 11 18 39 56 39 52 97 94 95 100 66 84 26 28 83 58 22 19 17 23 12
12 11 10 8 5 4 4 3 3 2 2 3 3 4 5 7 10 12 10 10 6 4 6 7 6 23 17 22 39 53 75 82 88 95 90 69 30 30 42 24 19 20 19 20 16
12 9 7 5 4 3 3 2 2 2 2 3 3 3 6 10 16 18 14 14 9 5 8 6 12 18 20 36 66 54 90 94 97 97 94 94 79 33 32 44 18 20 18 18 19
7 6 5 4 3 3 2 2 3 3 6 8 8 6 5 6 12 25 18 17 12 9 16 11 10 30 26 53 39 49 89 96 96 98 93 96 96 69 25 35 24 16 24 16 19
6 4 4 3 3 3 3 4 6 11 13 13 14 16 16 13 19 26 29 24 13 12 20 18 22 38 41 49 86 96 92 95 97 100 98 98 97 88 32 22 26 22 23 15 18
5 4 3 3 3 4 5 8 10 13 10 14 19 21 26 24 19 35 33 28 18 11 22 31 42 71 89 62 53 62 75 78 93 96 98 100 97 93 29 15 19 23 18 22 15
5 4 4 4 4 7 8 10 9 9 10 19 30 40 37 37 36 38 31 31 27 13 18 36 51 49 82 75 67 58 88 92 68 88 96 99 98 99 83 20 13 15 15 28 15
5 4 5 5 7 8 9 8 4 2 13 33 38 45 45 45 47 37 23 26 21 17 14 41 50 33 65 78 76 58 83 91 78 85 86 98 98 98 97 74 27 12 15 20 18
5 4 6 8 9 9 8 3 1 5 44 47 38 33 24 16 11 22 16 15 15 18 14 40 49 35 38 78 68 94 97 97 82 88 80 90 94 98 96 100 74 15 12 15 19
5 6 9 11 11 9 5 2 3 23 42 44 40 38 29 35 31 9 10 16 17 19 14 31 45 31 51 53 72 81 93 96 90 95 99 92 89 98 96 80 80 88 46 13 14
6 9 13 12 10 6 2 2 4 42 49 44 38 45 41 46 30 31 12 17 20 19 15 20 44 53 44 60 57 73 89 96 96 93 95 96 95 96 92 99 98 95 86 33 15
6 12 15 13 10 6 2 2 31 38 55 49 47 71 94 75 64 46 25 11 24 22 16 19 49 78 66 51 79 60 66 92 93 95 95 96 95 95 92 82 75 72 91 69 16
6 15 16 14 12 7 3 12 21 19 36 48 94 46 98 75 85 74 97 16 26 42 29 36 71 73 59 61 63 72 86 97 96 98 94 96 96 97 92 67 80 73 69 91 78
7 14 18 14 12 6 3 8 5 15 40 85 52 56 95 84 86 96 99 41 58 92 46 41 44 77 75 47 50 56 78 87 89 80 84 90 90 94 96 79 66 69 80 84 100
8 14 20 14 13 9 6 9 4 5 10 17 46 70 72 73 83 98 85 79 91 64 55 54 50 47 44 67 39 39 69 73 66 64 72 94 93 88 83 89 72 98 97 96 86
9 15 16 15 15 16 17 5 5 8 13 53 79 79 90 75 76 91 89 87 100 94 66 85 47 52 48 38 34 56 30 67 60 57 50 70 77 82 81 95 92 94 97 97 80
8 22 17 17 20 18 15 6 6 14 9 20 43 42 98 96 77 78 74 92 90 81 79 81 90 94 65 41 90 99 50 85 57 78 61 78 69 81 81 91 88 86 94 92 78
10 10 17 22 16 16 15 8 5 7 8 9 10 15 23 41 53 66 66 82 88 100 92 60 92 94 87 96 84 99 66 74 74 77 77 100 84 84 79 70 55 61 79 73 94
15 10 21 31 22 23 11 13 14 11 12 6 6 6 9 12 17 20 51 56 84 90 89 89 56 99 96 95 85 91 73 67 96 57 56 94 81 83 75 71 52 40 81 96 94
15 12 18 33 42 28 15 15 11 6 6 7 5 6 10 8 16 67 48 21 50 46 68 88 90 76 94 95 97 100 81 100 88 20 16 73 72 56 62 69 46 46 34 55 55
18 14 22 34 44 39 22 12 7 8 7 6 7 5 5 5 6 10 20 61 44 20 34 51 93 80 65 96 95 96 89 88 73 39 19 32 57 27 30 42 68 70 77 50 68
26 14 14 27 48 42 27 19 17 31 10 6 7 8 8 7 6 6 19 17 19 29 25 38 44 74 78 61 93 96 94 86 74 53 39 29 32 16 9 17 31 96 97 99 91

GFSSW_500_rhum_117.txt.gz
RH
12 10 9 9 8 6 6 5 4 4 4 4 4 4 5 6 6 3 3 3 3 3 4 9 24 28 40 45 38 48 95 98 86 78 17 59 47 35 32 29 28 28 26 38 40
14 13 11 9 10 9 8 6 5 4 4 4 4 4 4 5 5 6 4 3 3 3 3 4 12 16 26 33 70 42 71 88 81 40 23 22 34 52 38 29 30 27 26 30 35
14 12 10 7 10 11 9 6 5 5 4 4 4 4 4 4 4 6 6 3 3 3 3 5 14 21 29 52 41 46 81 92 96 35 19 66 51 57 44 34 26 28 15 16 17
6 7 7 12 12 11 10 6 4 4 4 3 3 4 4 4 5 6 6 6 3 3 3 4 17 41 37 56 42 49 70 96 97 60 77 33 46 29 89 29 26 25 13 14 13
14 14 14 12 11 10 8 5 4 4 3 4 4 4 4 4 5 6 7 7 5 3 3 4 6 12 16 47 41 41 74 98 99 96 79 66 22 19 35 40 24 23 17 15 14
10 11 11 10 8 6 5 4 3 3 3 3 3 3 4 4 7 6 7 9 7 5 3 4 5 9 26 68 43 41 70 95 96 96 93 74 48 32 75 63 26 22 19 13 11
11 11 9 7 5 4 4 3 3 2 2 2 3 3 4 6 13 12 10 11 10 7 4 4 12 25 10 58 69 44 82 83 98 98 94 75 70 65 61 90 29 25 18 17 13
9 7 6 5 4 3 3 2 2 2 2 2 3 3 3 3 6 15 16 16 15 10 6 33 11 5 5 20 66 64 96 96 99 96 84 72 71 46 71 32 26 27 20 18 17
7 6 5 4 3 3 3 3 3 3 4 6 7 8 7 6 6 16 18 19 19 14 9 6 6 6 6 18 47 70 93 97 97 97 95 90 83 73 47 25 19 24 22 21 20
7 5 4 4 3 3 3 3 3 4 6 7 8 10 12 12 9 16 22 27 21 16 13 10 12 13 11 18 44 65 87 96 97 96 96 97 97 97 81 61 27 19 19 20 21
7 6 5 4 3 4 4 4 5 5 5 5 6 9 14 17 19 15 20 32 30 21 15 16 22 36 30 45 51 92 77 96 93 97 97 99 90 97 86 43 18 18 24 21 19
7 6 5 4 4 5 6 6 5 4 3 5 14 26 30 36 28 26 25 31 31 27 17 16 26 54 56 24 64 68 90 96 95 95 92 92 98 98 96 58 11 20 19 20 18
7 6 4 5 5 7 7 5 4 2 7 19 32 32 37 41 43 39 35 33 30 24 16 19 40 46 62 46 78 64 54 93 98 96 83 84 97 98 92 83 52 12 21 24 21
8 6 5 6 7 8 7 5 2 4 33 31 39 37 32 30 39 46 41 28 19 20 17 30 40 48 46 65 96 100 58 72 95 86 76 80 89 91 98 87 67 14 15 21 29
8 6 6 7 9 9 7 5 3 11 25 22 21 25 37 34 31 20 20 16 15 18 17 31 48 50 42 47 83 100 76 88 88 83 69 77 94 75 72 90 76 30 15 18 26
9 6 8 10 10 10 8 4 3 15 27 25 20 37 43 44 44 26 10 15 16 20 18 45 51 50 45 38 61 79 65 85 92 93 86 100 86 66 71 88 78 83 36 14 25
11 7 10 12 12 11 7 4 8 11 9 24 24 44 63 87 55 35 19 21 30 29 20 57 82 64 49 46 44 56 63 78 95 100 99 97 84 67 97 98 96 89 92 88 45
14 8 7 12 14 12 7 5 7 7 6 14 18 59 72 91 70 34 30 22 60 43 25 78 74 76 64 52 46 46 62 79 86 98 96 94 89 90 94 96 96 94 85 84 95
18 9 7 14 15 13 8 6 4 4 5 9 17 70 65 83 77 53 26 71 65 44 31 79 79 82 72 68 54 57 69 74 94 92 92 95 92 85 93 93 80 71 73 64 84
19 12 8 13 15 14 14 14 6 3 4 16 25 58 77 84 70 88 69 83 87 45 40 62 82 80 77 66 55 62 92 75 70 94 70 92 96 96 97 89 94 79 83 69 80
23 17 13 12 16 16 16 12 5 3 4 10 38 63 80 80 69 76 94 56 92 96 56 44 81 80 57 57 40 44 51 59 66 74 60 58 89 93 93 73 88 71 84 75 86
28 18 13 11 15 17 17 14 6 4 4 6 8 38 74 78 58 72 73 85 100 89 95 63 62 73 74 62 40 53 69 49 58 52 52 39 64 62 79 74 70 79 62 88 98
34 24 13 14 18 22 21 14 7 4 4 6 4 4 10 45 75 67 71 84 95 89 84 80 70 72 78 81 78 95 71 54 40 20 35 40 44 61 66 72 65 74 77 67 96
39 28 20 17 17 26 30 17 10 8 16 10 8 7 7 7 10 13 19 46 54 84 88 61 84 93 88 90 89 88 78 82 42 40 18 44 80 77 67 76 62 59 56 64 87
40 27 26 19 17 32 43 37 21 12 9 9 6 5 6 5 7 10 64 35 35 68 80 81 56 75 97 89 81 94 76 54 43 29 29 71 51 53 64 66 55 61 49 50 77
38 34 32 21 14 29 38 36 35 11 8 6 7 7 6 5 7 10 14 9 42 36 67 59 63 59 65 99 87 100 80 68 52 44 62 83 78 56 71 56 75 56 53 62 56
34 30 43 28 19 22 34 34 44 24 24 16 9 7 7 7 7 7 6 6 5 12 27 24 46 69 82 88 95 80 79 73 71 67 56 77 71 61 59 56 52 52 52 70 75

GFSSW_500_rhum_123.txt.gz
RH
14 14 13 11 9 8 10 8 7 6 5 4 4 4 4 4 5 5 4 3 3 3 3 3 5 13 23 22 47 41 55 90 99 97 30 46 21 17 22 25 31 33 31 45 58
7 12 14 12 10 8 10 10 8 6 6 5 4 4 4 4 4 4 5 4 3 3 3 4 4 6 14 17 25 62 83 96 88 97 29 53 28 17 20 19 25 21 27 48 58
2 3 5 5 7 9 12 11 10 8 5 5 5 4 4 4 4 4 5 6 5 3 3 3 3 4 7 11 37 51 79 98 100 75 36 45 33 20 20 13 14 19 19 43 58
3 8 13 15 14 13 12 11 9 7 5 4 4 4 4 4 5 5 5 6 6 5 3 3 3 4 7 36 63 38 53 76 100 99 47 53 36 23 19 15 8 10 14 32 46
4 7 9 10 10 10 9 8 6 5 5 4 4 4 4 4 5 5 5 5 7 7 5 4 3 3 7 48 67 43 53 90 97 97 34 88 36 23 27 13 10 10 13 33 30
14 12 10 9 9 8 7 6 5 4 4 3 3 4 4 4 4 4 5 5 6 7 7 5 4 5 7 40 60 54 58 93 96 90 71 56 35 38 29 18 9 8 10 19 44
13 10 8 7 6 5 4 4 3 3 2 2 2 2 2 3 3 4 4 5 7 7 7 7 5 9 13 13 38 73 71 78 98 98 93 65 36 51 31 23 14 10 9 18 29
14 13 9 7 6 5 4 3 3 3 3 3 3 3 3 3 3 2 3 4 6 10 9 8 8 17 20 11 45 66 77 61 67 95 96 85 58 52 79 42 19 15 8 12 20
11 13 10 8 7 7 6 3 3 3 3 3 3 3 4 4 4 4 4 4 7 12 13 13 10 16 37 15 41 68 69 68 53 80 97 88 73 72 74 70 24 17 14 9 14
12 12 10 9 7 7 6 4 3 4 4 4 4 3 5 5 5 6 7 7 7 13 20 20 14 11 37 44 25 21 26 55 64 95 97 96 88 95 92 89 25 18 17 15 8
14 12 12 10 6 6 4 4 4 4 4 4 4 5 6 10 9 11 11 13 11 18 24 23 20 15 29 46 20 19 17 24 51 97 97 97 93 81 79 81 38 21 17 18 15
19 16 13 9 7 5 6 5 5 4 4 4 4 4 6 8 10 14 16 17 17 18 29 27 26 21 17 27 14 25 18 48 66 89 97 96 79 77 71 62 42 24 19 19 20
17 19 17 12 7 6 6 6 6 5 5 5 5 5 5 5 9 10 18 25 24 23 32 31 37 28 23 19 17 31 66 70 80 84 95 97 96 86 87 98 80 21 24 20 22
19 23 20 12 8 6 8 6 6 5 7 6 5 6 5 4 7 18 25 32 29 26 30 30 32 35 29 25 21 36 56 34 72 82 83 87 97 90 97 98 61 34 24 26 21
13 27 27 13 8 8 8 7 6 6 6 6 6 6 5 5 16 26 28 34 34 32 27 27 26 25 36 39 43 44 37 97 63 73 79 87 93 92 96 97 61 33 30 25 23
13 25 28 12 9 8 8 8 6 7 8 6 6 6 6 12 28 35 33 31 37 35 28 25 27 25 35 41 41 53 86 77 72 59 74 73 89 93 87 97 97 76 48 27 24
22 27 23 16 10 10 9 8 8 7 7 6 6 6 14 39 42 38 28 23 29 28 18 23 25 26 42 43 43 48 80 79 78 91 80 80 93 91 94 94 95 95 87 26 26
18 33 35 21 13 10 10 10 12 8 6 7 6 8 30 41 49 51 52 24 16 23 20 21 24 24 45 46 46 51 57 50 68 79 88 99 99 92 87 88 81 79 94 50 20
11 21 36 27 20 10 10 12 13 10 6 7 7 14 34 49 52 47 50 34 18 20 25 25 24 27 58 54 59 58 52 53 47 50 78 97 98 94 80 68 64 76 86 43 20
24 14 21 28 25 15 13 13 13 14 6 5 6 11 32 53 60 63 62 45 27 32 28 28 39 50 64 66 58 63 72 68 90 71 74 99 96 100 97 99 98 93 98 92 59
23 31 25 23 24 19 16 14 14 17 11 5 5 6 9 28 39 56 65 79 59 48 44 35 34 77 81 80 77 64 83 83 96 76 93 96 95 95 95 95 97 96 96 96 96
16 23 34 25 17 23 18 17 17 21 14 5 4 4 5 6 19 43 56 79 82 44 64 57 42 77 83 89 83 71 76 94 95 95 88 96 95 99 95 96 98 94 96 94 89
17 22 25 34 26 22 23 21 19 23 19 12 5 5 5 5 8 10 36 64 66 74 58 67 67 66 73 76 80 68 74 65 93 88 78 69 87 92 94 93 82 84 92 83 57
13 31 32 28 34 25 25 22 21 27 34 24 13 6 6 6 5 5 6 16 30 56 74 90 78 77 76 70 66 71 74 67 66 68 64 58 73 82 85 95 78 60 68 60 83
12 21 45 44 32 36 29 25 24 30 38 36 19 11 7 7 6 6 6 6 18 32 30 74 80 86 71 86 78 65 61 67 63 48 52 46 55 59 71 85 91 72 66 67 62
12 15 33 58 45 32 39 29 33 34 36 41 42 18 8 8 6 6 6 6 7 21 10 24 41 60 70 84 95 80 73 67 47 47 26 29 42 47 49 69 85 84 70 72 70
14 15 24 58 55 33 38 39 35 39 39 43 47 29 25 16 8 6 5 6 6 7 8 10 33 64 82 74 82 78 65 58 60 95 63 49 39 55 43 38 80 88 94 96 94